Time,TemperatureF,DewpointF,PressureIn,WindDirection,WindDirectionDegrees,WindSpeedMPH,WindSpeedGustMPH,Humidity,HourlyPrecipIn,Conditions,Clouds,dailyrainin,SoftwareType,DateUTC
2013-04-29 00:01:00,63.5,47.0,29.66,SE,135,2.0,4.0,55,0.16,,,0.00,Weather View 32 v70,2013-04-29 04:01:00,
2013-04-29 00:02:00,63.5,47.0,29.66,SSE,157,2.0,4.0,55,0.16,,,0.00,Weather View 32 v70,2013-04-29 04:02:00,
2013-04-29 00:07:00,63.4,46.4,29.66,SE,135,2.0,5.0,54,0.14,,,0.01,Weather View 32 v70,2013-04-29 04:07:00,
2013-04-29 00:12:00,63.4,46.4,29.66,SSE,157,2.0,5.0,54,0.13,,,0.02,Weather View 32 v70,2013-04-29 04:12:00,
2013-04-29 00:17:00,63.3,46.3,29.66,South,180,2.0,5.0,54,0.12,,,0.02,Weather View 32 v70,2013-04-29 04:17:00,
2013-04-29 00:22:00,63.4,46.4,29.66,SSW,202,2.0,5.0,54,0.11,,,0.02,Weather View 32 v70,2013-04-29 04:22:00,
2013-04-29 00:27:00,63.5,46.5,29.66,SSW,202,6.0,6.0,54,0.11,,,0.03,Weather View 32 v70,2013-04-29 04:27:00,
2013-04-29 00:32:00,63.4,46.4,29.66,SSW,202,2.0,6.0,54,0.09,,,0.03,Weather View 32 v70,2013-04-29 04:32:00,
2013-04-29 00:37:00,63.5,46.0,29.66,SSW,202,2.0,6.0,53,0.07,,,0.03,Weather View 32 v70,2013-04-29 04:37:00,
2013-04-29 00:42:00,63.4,45.9,29.66,SSW,202,2.0,6.0,53,0.06,,,0.03,Weather View 32 v70,2013-04-29 04:42:00,
2013-04-29 00:47:00,63.4,45.9,29.65,SSW,202,2.0,6.0,53,0.05,,,0.03,Weather View 32 v70,2013-04-29 04:47:00,
2013-04-29 00:52:00,63.4,45.9,29.66,SW,225,1.0,6.0,53,0.04,,,0.03,Weather View 32 v70,2013-04-29 04:52:00,
2013-04-29 00:57:00,63.5,46.0,29.65,SW,225,1.0,6.0,53,0.03,,,0.03,Weather View 32 v70,2013-04-29 04:57:00,
2013-04-29 01:02:00,63.5,46.0,29.65,SW,225,2.0,6.0,53,0.03,,,0.03,Weather View 32 v70,2013-04-29 05:02:00,
2013-04-29 01:07:00,63.5,46.0,29.65,SW,225,0.0,6.0,53,0.02,,,0.03,Weather View 32 v70,2013-04-29 05:07:00,
2013-04-29 01:12:00,63.6,45.6,29.65,SW,225,0.0,6.0,52,0.01,,,0.03,Weather View 32 v70,2013-04-29 05:12:00,
2013-04-29 01:17:00,63.6,45.6,29.66,West,270,2.0,6.0,52,0.01,,,0.03,Weather View 32 v70,2013-04-29 05:17:00,
2013-04-29 01:23:00,63.6,45.6,29.66,West,270,2.0,6.0,52,0.02,,,0.04,Weather View 32 v70,2013-04-29 05:23:00,
2013-04-29 01:28:00,63.6,45.6,29.66,West,270,2.0,6.0,52,0.01,,,0.04,Weather View 32 v70,2013-04-29 05:28:00,
2013-04-29 01:33:00,63.6,45.6,29.66,West,270,0.0,4.0,52,0.01,,,0.04,Weather View 32 v70,2013-04-29 05:33:00,
2013-04-29 01:38:00,63.6,45.6,29.65,West,270,0.0,3.0,52,0.01,,,0.04,Weather View 32 v70,2013-04-29 05:38:00,
2013-04-29 01:43:00,63.6,45.6,29.65,WNW,292,2.0,3.0,52,0.01,,,0.04,Weather View 32 v70,2013-04-29 05:43:00,
2013-04-29 01:48:00,63.6,45.6,29.65,WNW,292,1.0,3.0,52,0.01,,,0.04,Weather View 32 v70,2013-04-29 05:48:00,
2013-04-29 01:53:00,63.6,45.6,29.65,WNW,292,2.0,2.0,52,0.01,,,0.04,Weather View 32 v70,2013-04-29 05:53:00,
2013-04-29 01:58:00,63.6,45.6,29.65,WNW,292,4.0,4.0,52,0.03,,,0.06,Weather View 32 v70,2013-04-29 05:58:00,
2013-04-29 02:03:00,63.6,45.6,29.65,NW,315,1.0,4.0,52,0.03,,,0.06,Weather View 32 v70,2013-04-29 06:03:00,
2013-04-29 02:08:00,63.5,45.5,29.65,NW,315,2.0,4.0,52,0.03,,,0.06,Weather View 32 v70,2013-04-29 06:08:00,
2013-04-29 02:13:00,63.6,45.6,29.64,NNE,22,0.0,4.0,52,0.03,,,0.06,Weather View 32 v70,2013-04-29 06:13:00,
2013-04-29 02:18:00,63.6,45.6,29.64,West,270,4.0,4.0,52,0.04,,,0.07,Weather View 32 v70,2013-04-29 06:18:00,
2013-04-29 02:23:00,63.6,45.6,29.65,West,270,5.0,5.0,52,0.03,,,0.07,Weather View 32 v70,2013-04-29 06:23:00,
2013-04-29 02:28:00,63.5,45.5,29.65,WNW,292,2.0,5.0,52,0.04,,,0.08,Weather View 32 v70,2013-04-29 06:28:00,
2013-04-29 02:33:00,63.6,45.6,29.65,WSW,247,0.0,5.0,52,0.05,,,0.09,Weather View 32 v70,2013-04-29 06:33:00,
2013-04-29 02:38:00,63.6,45.6,29.65,WSW,247,0.0,5.0,52,0.05,,,0.09,Weather View 32 v70,2013-04-29 06:38:00,
2013-04-29 02:43:00,63.7,45.7,29.65,West,270,2.0,5.0,52,0.05,,,0.09,Weather View 32 v70,2013-04-29 06:43:00,
2013-04-29 02:48:00,63.7,45.7,29.64,West,270,0.0,5.0,52,0.05,,,0.09,Weather View 32 v70,2013-04-29 06:48:00,
2013-04-29 02:53:00,63.6,45.6,29.63,WNW,292,0.0,5.0,52,0.06,,,0.10,Weather View 32 v70,2013-04-29 06:53:00,
2013-04-29 02:58:00,63.7,45.7,29.63,NW,315,0.0,5.0,52,0.04,,,0.10,Weather View 32 v70,2013-04-29 06:58:00,
2013-04-29 03:03:00,63.7,45.7,29.63,NW,315,0.0,5.0,52,0.04,,,0.10,Weather View 32 v70,2013-04-29 07:03:00,
2013-04-29 03:08:00,63.6,45.6,29.63,East,90,2.0,5.0,52,0.04,,,0.10,Weather View 32 v70,2013-04-29 07:08:00,
2013-04-29 03:13:00,63.4,45.4,29.63,East,90,2.0,5.0,52,0.04,,,0.10,Weather View 32 v70,2013-04-29 07:13:00,
2013-04-29 03:18:00,63.4,45.9,29.63,East,90,1.0,5.0,53,0.03,,,0.10,Weather View 32 v70,2013-04-29 07:18:00,
2013-04-29 03:23:00,63.3,45.8,29.63,East,90,1.0,5.0,53,0.03,,,0.10,Weather View 32 v70,2013-04-29 07:23:00,
2013-04-29 03:28:00,63.3,45.8,29.62,East,90,1.0,4.0,53,0.02,,,0.10,Weather View 32 v70,2013-04-29 07:28:00,
2013-04-29 03:33:00,63.3,45.8,29.62,East,90,1.0,3.0,53,0.01,,,0.10,Weather View 32 v70,2013-04-29 07:33:00,
2013-04-29 03:38:00,63.3,45.8,29.62,East,90,1.0,3.0,53,0.01,,,0.10,Weather View 32 v70,2013-04-29 07:38:00,
2013-04-29 03:43:00,63.3,45.8,29.63,East,90,0.0,3.0,53,0.01,,,0.10,Weather View 32 v70,2013-04-29 07:43:00,
2013-04-29 03:48:00,63.2,45.2,29.62,NNE,22,2.0,2.0,52,0.01,,,0.10,Weather View 32 v70,2013-04-29 07:48:00,
2013-04-29 03:53:00,63.3,45.3,29.62,NNE,22,1.0,2.0,52,0.00,,,0.10,Weather View 32 v70,2013-04-29 07:53:00,
2013-04-29 03:58:00,63.4,45.4,29.62,NE,45,1.0,3.0,52,0.00,,,0.10,Weather View 32 v70,2013-04-29 07:58:00,
2013-04-29 04:04:00,63.4,45.4,29.61,NE,45,2.0,3.0,52,-0.10,,,0.10,Weather View 32 v70,2013-04-29 08:04:00,
2013-04-29 04:09:00,63.4,45.4,29.62,NNW,337,2.0,3.0,52,0.00,,,0.10,Weather View 32 v70,2013-04-29 08:09:00,
2013-04-29 04:14:00,63.4,45.4,29.61,North,360,2.0,4.0,52,0.00,,,0.10,Weather View 32 v70,2013-04-29 08:14:00,
2013-04-29 04:19:00,63.4,45.4,29.61,NNW,337,4.0,6.0,52,0.00,,,0.10,Weather View 32 v70,2013-04-29 08:19:00,
2013-04-29 04:24:00,63.3,45.3,29.61,North,360,2.0,7.0,52,0.00,,,0.10,Weather View 32 v70,2013-04-29 08:24:00,
2013-04-29 04:29:00,63.2,45.2,29.62,WNW,292,2.0,7.0,52,0.01,,,0.11,Weather View 32 v70,2013-04-29 08:29:00,
2013-04-29 04:34:00,63.1,45.6,29.62,NW,315,2.0,7.0,53,0.02,,,0.12,Weather View 32 v70,2013-04-29 08:34:00,
2013-04-29 04:39:00,62.9,45.5,29.61,NW,315,7.0,7.0,53,0.04,,,0.14,Weather View 32 v70,2013-04-29 08:39:00,
2013-04-29 04:44:00,62.7,45.8,29.61,North,360,9.0,12.0,54,0.06,,,0.16,Weather View 32 v70,2013-04-29 08:44:00,
2013-04-29 04:49:00,62.6,45.7,29.61,NW,315,6.0,12.0,54,0.08,,,0.19,Weather View 32 v70,2013-04-29 08:49:00,
2013-04-29 04:54:00,62.4,45.5,29.63,West,270,7.0,12.0,54,0.12,,,0.22,Weather View 32 v70,2013-04-29 08:54:00,
2013-04-29 04:59:00,62.3,45.4,29.62,WNW,292,11.0,12.0,54,0.16,,,0.26,Weather View 32 v70,2013-04-29 08:59:00,
2013-04-29 05:04:00,62.3,45.4,29.61,NW,315,11.0,19.0,54,0.16,,,0.26,Weather View 32 v70,2013-04-29 09:04:00,
2013-04-29 05:09:00,62.2,45.3,29.63,West,270,11.0,19.0,54,0.16,,,0.26,Weather View 32 v70,2013-04-29 09:09:00,
2013-04-29 05:14:00,62.1,45.2,29.63,West,270,9.0,19.0,54,0.16,,,0.26,Weather View 32 v70,2013-04-29 09:14:00,
2013-04-29 05:19:00,62.1,45.2,29.63,WNW,292,5.0,19.0,54,0.16,,,0.26,Weather View 32 v70,2013-04-29 09:19:00,
2013-04-29 05:24:00,62.1,44.7,29.63,WNW,292,4.0,19.0,53,0.16,,,0.26,Weather View 32 v70,2013-04-29 09:24:00,
2013-04-29 05:29:00,62.1,44.7,29.63,West,270,5.0,19.0,53,0.15,,,0.26,Weather View 32 v70,2013-04-29 09:29:00,
2013-04-29 05:34:00,62.1,44.7,29.63,WNW,292,3.0,19.0,53,0.14,,,0.26,Weather View 32 v70,2013-04-29 09:34:00,
2013-04-29 05:39:00,62.0,44.6,29.63,WNW,292,4.0,19.0,53,0.12,,,0.26,Weather View 32 v70,2013-04-29 09:39:00,
2013-04-29 05:44:00,62.0,44.6,29.63,NNW,337,3.0,19.0,53,0.10,,,0.26,Weather View 32 v70,2013-04-29 09:44:00,
2013-04-29 05:49:00,62.0,45.1,29.62,NW,315,1.0,19.0,54,0.08,,,0.26,Weather View 32 v70,2013-04-29 09:49:00,
2013-04-29 05:54:00,61.9,45.0,29.62,NNW,337,1.0,19.0,54,0.04,,,0.26,Weather View 32 v70,2013-04-29 09:54:00,
2013-04-29 05:59:00,61.9,45.0,29.62,NNW,337,0.0,19.0,54,0.00,,,0.26,Weather View 32 v70,2013-04-29 09:59:00,
2013-04-29 06:04:00,61.9,45.0,29.62,NNW,337,0.0,18.0,54,0.00,,,0.26,Weather View 32 v70,2013-04-29 10:04:00,
2013-04-29 06:09:00,61.9,45.0,29.62,NNW,337,0.0,18.0,54,0.00,,,0.26,Weather View 32 v70,2013-04-29 10:09:00,
2013-04-29 06:14:00,61.8,44.9,29.62,NNW,337,0.0,14.0,54,0.00,,,0.26,Weather View 32 v70,2013-04-29 10:14:00,
2013-04-29 06:19:00,61.8,44.9,29.62,NNW,337,1.0,9.0,54,0.00,,,0.26,Weather View 32 v70,2013-04-29 10:19:00,
2013-04-29 06:24:00,61.7,44.8,29.62,East,90,2.0,8.0,54,0.00,,,0.26,Weather View 32 v70,2013-04-29 10:24:00,
2013-04-29 06:29:00,61.8,44.9,29.63,East,90,0.0,7.0,54,0.00,,,0.26,Weather View 32 v70,2013-04-29 10:29:00,
2013-04-29 06:34:00,61.8,44.9,29.63,East,90,0.0,7.0,54,0.00,,,0.26,Weather View 32 v70,2013-04-29 10:34:00,
2013-04-29 06:39:00,61.8,44.9,29.63,East,90,0.0,6.0,54,0.00,,,0.26,Weather View 32 v70,2013-04-29 10:39:00,
2013-04-29 06:45:00,61.8,44.9,29.63,East,90,2.0,4.0,54,-0.26,,,0.26,Weather View 32 v70,2013-04-29 10:45:00,
2013-04-29 06:50:00,61.7,45.3,29.63,ESE,112,1.0,3.0,55,0.00,,,0.26,Weather View 32 v70,2013-04-29 10:50:00,
2013-04-29 06:55:00,61.5,45.1,29.63,ESE,112,2.0,3.0,55,0.00,,,0.26,Weather View 32 v70,2013-04-29 10:55:00,
2013-04-29 07:00:00,61.5,45.1,29.63,ESE,112,2.0,4.0,55,0.00,,,0.26,Weather View 32 v70,2013-04-29 11:00:00,
2013-04-29 07:05:00,61.5,45.1,29.63,ESE,112,1.0,4.0,55,0.00,,,0.26,Weather View 32 v70,2013-04-29 11:05:00,
2013-04-29 07:10:00,61.6,45.2,29.63,ESE,112,2.0,4.0,55,0.00,,,0.26,Weather View 32 v70,2013-04-29 11:10:00,
2013-04-29 07:15:00,61.6,45.2,29.63,ESE,112,2.0,4.0,55,0.00,,,0.26,Weather View 32 v70,2013-04-29 11:15:00,
2013-04-29 07:20:00,61.6,45.2,29.63,ESE,112,1.0,4.0,55,0.00,,,0.26,Weather View 32 v70,2013-04-29 11:20:00,
2013-04-29 07:25:00,61.6,45.2,29.63,ESE,112,2.0,4.0,55,0.00,,,0.26,Weather View 32 v70,2013-04-29 11:25:00,
2013-04-29 07:30:00,61.6,45.2,29.63,ESE,112,2.0,4.0,55,0.00,,,0.26,Weather View 32 v70,2013-04-29 11:30:00,
2013-04-29 07:35:00,61.7,45.3,29.63,ESE,112,1.0,4.0,55,0.00,,,0.26,Weather View 32 v70,2013-04-29 11:35:00,
2013-04-29 07:40:00,61.7,45.3,29.63,ESE,112,1.0,4.0,55,0.00,,,0.26,Weather View 32 v70,2013-04-29 11:40:00,
2013-04-29 07:45:00,61.7,45.8,29.63,ESE,112,2.0,4.0,56,0.00,,,0.26,Weather View 32 v70,2013-04-29 11:45:00,
2013-04-29 07:50:00,61.8,45.4,29.63,ESE,112,2.0,4.0,55,0.00,,,0.26,Weather View 32 v70,2013-04-29 11:50:00,
2013-04-29 07:55:00,61.8,45.4,29.63,ESE,112,2.0,4.0,55,0.00,,,0.26,Weather View 32 v70,2013-04-29 11:55:00,
2013-04-29 08:00:00,61.9,45.5,29.63,ESE,112,1.0,4.0,55,0.00,,,0.26,Weather View 32 v70,2013-04-29 12:00:00,
2013-04-29 08:05:00,62.1,45.7,29.63,ESE,112,2.0,2.0,55,0.00,,,0.26,Weather View 32 v70,2013-04-29 12:05:00,
2013-04-29 08:10:00,62.1,45.7,29.63,ESE,112,2.0,2.0,55,0.00,,,0.27,Weather View 32 v70,2013-04-29 12:10:00,
2013-04-29 08:15:00,62.2,45.8,29.63,SE,135,2.0,2.0,55,0.02,,,0.28,Weather View 32 v70,2013-04-29 12:15:00,
2013-04-29 08:20:00,62.3,45.4,29.63,SE,135,2.0,2.0,54,0.04,,,0.30,Weather View 32 v70,2013-04-29 12:20:00,
2013-04-29 08:25:00,62.3,45.4,29.63,SE,135,1.0,2.0,54,0.04,,,0.30,Weather View 32 v70,2013-04-29 12:25:00,
2013-04-29 08:30:00,62.3,45.4,29.63,SE,135,1.0,3.0,54,0.05,,,0.31,Weather View 32 v70,2013-04-29 12:30:00,
2013-04-29 08:35:00,62.6,45.2,29.63,SE,135,2.0,3.0,53,0.05,,,0.31,Weather View 32 v70,2013-04-29 12:35:00,
2013-04-29 08:40:00,62.7,45.3,29.63,SE,135,2.0,3.0,53,0.05,,,0.31,Weather View 32 v70,2013-04-29 12:40:00,
2013-04-29 08:45:00,62.7,44.8,29.63,SE,135,2.0,3.0,52,0.05,,,0.31,Weather View 32 v70,2013-04-29 12:45:00,
2013-04-29 08:50:00,62.9,45.0,29.63,SE,135,1.0,3.0,52,0.05,,,0.31,Weather View 32 v70,2013-04-29 12:50:00,
2013-04-29 08:55:00,62.9,44.5,29.63,ESE,112,2.0,3.0,51,0.05,,,0.31,Weather View 32 v70,2013-04-29 12:55:00,
2013-04-29 09:00:00,63.3,44.8,29.63,ESE,112,2.0,3.0,51,0.05,,,0.31,Weather View 32 v70,2013-04-29 13:00:00,
2013-04-29 09:05:00,63.4,44.4,29.63,SE,135,1.0,3.0,50,0.05,,,0.31,Weather View 32 v70,2013-04-29 13:05:00,
2013-04-29 09:10:00,63.9,44.3,29.63,SE,135,2.0,3.0,49,0.05,,,0.31,Weather View 32 v70,2013-04-29 13:10:00,
2013-04-29 09:15:00,64.4,44.8,29.63,SE,135,1.0,4.0,49,0.03,,,0.31,Weather View 32 v70,2013-04-29 13:15:00,
2013-04-29 09:20:00,64.4,44.2,29.63,SE,135,3.0,4.0,48,0.01,,,0.31,Weather View 32 v70,2013-04-29 13:20:00,
2013-04-29 09:26:00,64.4,43.7,29.63,SSE,157,2.0,4.0,47,-0.30,,,0.31,Weather View 32 v70,2013-04-29 13:26:00,
2013-04-29 09:31:00,65.0,43.7,29.64,South,180,2.0,4.0,46,0.00,,,0.31,Weather View 32 v70,2013-04-29 13:31:00,
2013-04-29 09:36:00,65.5,44.1,29.63,South,180,1.0,4.0,46,0.00,,,0.31,Weather View 32 v70,2013-04-29 13:36:00,
2013-04-29 09:41:00,65.6,43.0,29.63,South,180,2.0,4.0,44,0.00,,,0.31,Weather View 32 v70,2013-04-29 13:41:00,
2013-04-29 09:46:00,65.9,42.1,29.63,South,180,1.0,5.0,42,0.00,,,0.31,Weather View 32 v70,2013-04-29 13:46:00,
2013-04-29 09:51:00,66.8,41.0,29.63,South,180,2.0,5.0,39,0.00,,,0.31,Weather View 32 v70,2013-04-29 13:51:00,
2013-04-29 09:56:00,67.4,40.8,29.63,SSW,202,2.0,5.0,38,0.00,,,0.31,Weather View 32 v70,2013-04-29 13:56:00,
2013-04-29 10:01:00,67.7,42.4,29.63,SSW,202,1.0,5.0,40,0.00,,,0.31,Weather View 32 v70,2013-04-29 14:01:00,
2013-04-29 10:06:00,67.9,46.9,29.63,SSW,202,4.0,6.0,47,0.00,,,0.31,Weather View 32 v70,2013-04-29 14:06:00,
2013-04-29 10:11:00,68.6,51.2,29.63,SSW,202,2.0,6.0,54,0.00,,,0.31,Weather View 32 v70,2013-04-29 14:11:00,
2013-04-29 10:16:00,69.3,55.7,29.63,SW,225,3.0,7.0,62,0.00,,,0.31,Weather View 32 v70,2013-04-29 14:16:00,
2013-04-29 10:21:00,69.6,58.1,29.63,South,180,7.0,7.0,67,0.00,,,0.31,Weather View 32 v70,2013-04-29 14:21:00,
2013-04-29 10:26:00,69.7,61.4,29.63,SSW,202,4.0,9.0,75,0.00,,,0.31,Weather View 32 v70,2013-04-29 14:26:00,
2013-04-29 10:31:00,69.5,62.3,29.63,SW,225,6.0,9.0,78,0.00,,,0.31,Weather View 32 v70,2013-04-29 14:31:00,
2013-04-29 10:36:00,69.5,61.6,29.64,WSW,247,4.0,9.0,76,0.00,,,0.31,Weather View 32 v70,2013-04-29 14:36:00,
2013-04-29 10:41:00,69.7,62.5,29.64,WSW,247,6.0,9.0,78,0.00,,,0.31,Weather View 32 v70,2013-04-29 14:41:00,
2013-04-29 10:46:00,69.4,62.2,29.64,SW,225,8.0,9.0,78,0.00,,,0.31,Weather View 32 v70,2013-04-29 14:46:00,
2013-04-29 10:51:00,69.7,63.2,29.64,SW,225,5.0,9.0,80,0.00,,,0.31,Weather View 32 v70,2013-04-29 14:51:00,
2013-04-29 10:56:00,69.9,63.8,29.63,SW,225,3.0,9.0,81,0.00,,,0.31,Weather View 32 v70,2013-04-29 14:56:00,
2013-04-29 11:01:00,70.3,64.5,29.63,SW,225,6.0,9.0,82,0.00,,,0.31,Weather View 32 v70,2013-04-29 15:01:00,
2013-04-29 11:06:00,70.7,65.6,29.64,SW,225,4.0,9.0,84,0.00,,,0.31,Weather View 32 v70,2013-04-29 15:06:00,
2013-04-29 11:11:00,70.9,65.8,29.64,SW,225,4.0,10.0,84,0.00,,,0.31,Weather View 32 v70,2013-04-29 15:11:00,
2013-04-29 11:16:00,70.9,67.5,29.64,WSW,247,3.0,10.0,89,0.00,,,0.31,Weather View 32 v70,2013-04-29 15:16:00,
2013-04-29 11:21:00,71.2,67.4,29.64,SW,225,4.0,10.0,88,0.00,,,0.31,Weather View 32 v70,2013-04-29 15:21:00,
2013-04-29 11:26:00,71.0,65.9,29.64,WSW,247,7.0,10.0,84,0.00,,,0.31,Weather View 32 v70,2013-04-29 15:26:00,
2013-04-29 11:31:00,70.7,65.3,29.64,West,270,1.0,10.0,83,0.00,,,0.31,Weather View 32 v70,2013-04-29 15:31:00,
2013-04-29 11:36:00,70.9,65.8,29.65,SW,225,2.0,10.0,84,0.00,,,0.31,Weather View 32 v70,2013-04-29 15:36:00,
2013-04-29 11:42:00,70.8,67.1,29.65,SSW,202,4.0,10.0,88,0.00,,,0.31,Weather View 32 v70,2013-04-29 15:42:00,
2013-04-29 11:47:00,71.1,67.0,29.65,WSW,247,3.0,10.0,87,0.00,,,0.31,Weather View 32 v70,2013-04-29 15:47:00,
2013-04-29 11:52:00,71.0,65.6,29.65,SW,225,4.0,10.0,83,0.00,,,0.31,Weather View 32 v70,2013-04-29 15:52:00,
2013-04-29 11:57:00,71.5,67.1,29.65,SW,225,5.0,10.0,86,0.00,,,0.31,Weather View 32 v70,2013-04-29 15:57:00,
2013-04-29 12:02:00,71.7,67.6,29.65,WSW,247,2.0,10.0,87,0.00,,,0.31,Weather View 32 v70,2013-04-29 16:02:00,
2013-04-29 12:07:00,71.1,68.0,29.65,SW,225,6.0,10.0,90,0.00,,,0.31,Weather View 32 v70,2013-04-29 16:07:00,
2013-04-29 12:12:00,71.5,67.7,29.64,SW,225,1.0,8.0,88,0.00,,,0.31,Weather View 32 v70,2013-04-29 16:12:00,
2013-04-29 12:17:00,71.6,68.5,29.64,SW,225,7.0,8.0,90,0.00,,,0.31,Weather View 32 v70,2013-04-29 16:17:00,
2013-04-29 12:22:00,71.7,68.6,29.64,SW,225,2.0,8.0,90,0.00,,,0.31,Weather View 32 v70,2013-04-29 16:22:00,
2013-04-29 12:27:00,71.9,69.1,29.64,WSW,247,4.0,8.0,91,0.00,,,0.31,Weather View 32 v70,2013-04-29 16:27:00,
2013-04-29 12:32:00,72.1,68.7,29.64,West,270,1.0,8.0,89,0.00,,,0.31,Weather View 32 v70,2013-04-29 16:32:00,
2013-04-29 12:37:00,72.2,69.1,29.64,WSW,247,4.0,8.0,90,0.00,,,0.31,Weather View 32 v70,2013-04-29 16:37:00,
2013-04-29 12:42:00,72.1,69.0,29.64,West,270,2.0,8.0,90,0.00,,,0.31,Weather View 32 v70,2013-04-29 16:42:00,
2013-04-29 12:47:00,72.3,68.9,29.64,WNW,292,6.0,8.0,89,0.00,,,0.31,Weather View 32 v70,2013-04-29 16:47:00,
2013-04-29 12:52:00,72.2,68.8,29.64,WNW,292,4.0,8.0,89,0.00,,,0.31,Weather View 32 v70,2013-04-29 16:52:00,
2013-04-29 12:57:00,71.9,68.5,29.64,WNW,292,6.0,8.0,89,0.00,,,0.31,Weather View 32 v70,2013-04-29 16:57:00,
2013-04-29 13:02:00,71.9,68.1,29.63,West,270,4.0,8.0,88,0.00,,,0.31,Weather View 32 v70,2013-04-29 17:02:00,
2013-04-29 13:07:00,71.9,67.8,29.63,West,270,5.0,8.0,87,0.00,,,0.31,Weather View 32 v70,2013-04-29 17:07:00,
2013-04-29 13:12:00,71.9,68.1,29.63,WSW,247,2.0,8.0,88,0.00,,,0.31,Weather View 32 v70,2013-04-29 17:12:00,
2013-04-29 13:17:00,71.9,67.8,29.63,West,270,2.0,8.0,87,0.00,,,0.31,Weather View 32 v70,2013-04-29 17:17:00,
2013-04-29 13:22:00,71.9,68.1,29.63,WNW,292,2.0,8.0,88,0.00,,,0.31,Weather View 32 v70,2013-04-29 17:22:00,
2013-04-29 13:27:00,72.3,68.5,29.62,WNW,292,4.0,8.0,88,0.00,,,0.31,Weather View 32 v70,2013-04-29 17:27:00,
2013-04-29 13:32:00,72.2,69.1,29.62,West,270,7.0,8.0,90,0.00,,,0.31,Weather View 32 v70,2013-04-29 17:32:00,
2013-04-29 13:37:00,72.5,69.7,29.62,West,270,2.0,9.0,91,0.00,,,0.31,Weather View 32 v70,2013-04-29 17:37:00,
2013-04-29 13:42:00,72.6,69.8,29.62,West,270,6.0,9.0,91,0.00,,,0.31,Weather View 32 v70,2013-04-29 17:42:00,
2013-04-29 13:47:00,72.7,69.9,29.62,West,270,5.0,9.0,91,0.00,,,0.31,Weather View 32 v70,2013-04-29 17:47:00,
2013-04-29 13:52:00,72.7,69.9,29.62,WSW,247,4.0,9.0,91,0.00,,,0.31,Weather View 32 v70,2013-04-29 17:52:00,
2013-04-29 13:57:00,72.8,69.7,29.61,West,270,1.0,9.0,90,0.00,,,0.31,Weather View 32 v70,2013-04-29 17:57:00,
2013-04-29 14:02:00,72.9,69.8,29.61,NW,315,4.0,9.0,90,0.00,,,0.31,Weather View 32 v70,2013-04-29 18:02:00,
2013-04-29 14:07:00,72.9,69.8,29.61,North,360,4.0,9.0,90,0.00,,,0.31,Weather View 32 v70,2013-04-29 18:07:00,
2013-04-29 14:12:00,73.1,70.0,29.61,NNW,337,3.0,9.0,90,0.00,,,0.31,Weather View 32 v70,2013-04-29 18:12:00,
2013-04-29 14:17:00,72.8,69.0,29.60,WNW,292,3.0,9.0,88,0.00,,,0.31,Weather View 32 v70,2013-04-29 18:17:00,
2013-04-29 14:22:00,73.1,69.3,29.61,NW,315,2.0,9.0,88,0.00,,,0.31,Weather View 32 v70,2013-04-29 18:22:00,
2013-04-29 14:28:00,73.1,70.0,29.61,NE,45,3.0,9.0,90,-0.10,,,0.31,Weather View 32 v70,2013-04-29 18:28:00,
2013-04-29 14:33:00,73.4,70.3,29.60,North,360,2.0,9.0,90,0.00,,,0.31,Weather View 32 v70,2013-04-29 18:33:00,
2013-04-29 14:38:00,74.1,70.6,29.60,North,360,2.0,8.0,89,0.00,,,0.31,Weather View 32 v70,2013-04-29 18:38:00,
2013-04-29 14:43:00,74.4,71.9,29.60,NNW,337,4.0,8.0,92,0.00,,,0.31,Weather View 32 v70,2013-04-29 18:43:00,
2013-04-29 14:48:00,73.7,71.2,29.60,NNW,337,4.0,7.0,92,0.00,,,0.31,Weather View 32 v70,2013-04-29 18:48:00,
2013-04-29 14:53:00,72.9,70.1,29.60,NW,315,1.0,7.0,91,0.00,,,0.31,Weather View 32 v70,2013-04-29 18:53:00,
2013-04-29 14:58:00,72.2,68.1,29.61,WNW,292,4.0,7.0,87,0.01,,,0.32,Weather View 32 v70,2013-04-29 18:58:00,
2013-04-29 15:03:00,71.4,65.9,29.61,WNW,292,3.0,7.0,83,0.03,,,0.34,Weather View 32 v70,2013-04-29 19:03:00,
2013-04-29 15:08:00,70.4,62.8,29.61,WNW,292,5.0,7.0,77,0.05,,,0.36,Weather View 32 v70,2013-04-29 19:08:00,
2013-04-29 15:13:00,68.8,61.3,29.61,West,270,4.0,7.0,77,0.09,,,0.40,Weather View 32 v70,2013-04-29 19:13:00,
2013-04-29 15:18:00,67.5,63.5,29.61,WSW,247,3.0,7.0,87,0.11,,,0.42,Weather View 32 v70,2013-04-29 19:18:00,
2013-04-29 15:23:00,66.6,62.9,29.60,SW,225,6.0,7.0,88,0.14,,,0.45,Weather View 32 v70,2013-04-29 19:23:00,
2013-04-29 15:28:00,66.3,60.3,29.60,SW,225,4.0,7.0,81,0.14,,,0.45,Weather View 32 v70,2013-04-29 19:28:00,
2013-04-29 15:33:00,66.7,60.3,29.60,South,180,3.0,7.0,80,0.15,,,0.46,Weather View 32 v70,2013-04-29 19:33:00,
2013-04-29 15:38:00,66.9,59.1,29.59,SSE,157,4.0,7.0,76,0.15,,,0.46,Weather View 32 v70,2013-04-29 19:38:00,
2013-04-29 15:43:00,67.4,59.9,29.58,SE,135,2.0,7.0,77,0.15,,,0.46,Weather View 32 v70,2013-04-29 19:43:00,
2013-04-29 15:48:00,68.1,61.0,29.58,SE,135,2.0,7.0,78,0.15,,,0.46,Weather View 32 v70,2013-04-29 19:48:00,
2013-04-29 15:53:00,68.3,63.3,29.58,SE,135,2.0,7.0,84,0.15,,,0.46,Weather View 32 v70,2013-04-29 19:53:00,
2013-04-29 15:58:00,67.7,62.7,29.58,SE,135,1.0,7.0,84,0.14,,,0.46,Weather View 32 v70,2013-04-29 19:58:00,
2013-04-29 16:03:00,68.0,62.3,29.58,South,180,2.0,7.0,82,0.12,,,0.46,Weather View 32 v70,2013-04-29 20:03:00,
2013-04-29 16:08:00,67.9,62.9,29.58,South,180,1.0,7.0,84,0.10,,,0.46,Weather View 32 v70,2013-04-29 20:08:00,
2013-04-29 16:13:00,66.8,60.4,29.59,South,180,0.0,7.0,80,0.06,,,0.46,Weather View 32 v70,2013-04-29 20:13:00,
2013-04-29 16:18:00,66.7,59.2,29.58,South,180,1.0,7.0,77,0.05,,,0.47,Weather View 32 v70,2013-04-29 20:18:00,
2013-04-29 16:23:00,66.6,59.5,29.58,SSW,202,3.0,7.0,78,0.02,,,0.47,Weather View 32 v70,2013-04-29 20:23:00,
2013-04-29 16:28:00,66.4,59.7,29.58,SSW,202,2.0,7.0,79,0.02,,,0.47,Weather View 32 v70,2013-04-29 20:28:00,
2013-04-29 16:33:00,66.6,57.3,29.59,South,180,2.0,7.0,72,0.01,,,0.47,Weather View 32 v70,2013-04-29 20:33:00,
2013-04-29 16:38:00,66.1,55.2,29.58,South,180,2.0,7.0,68,0.02,,,0.48,Weather View 32 v70,2013-04-29 20:38:00,
2013-04-29 16:43:00,65.9,52.5,29.58,SSE,157,3.0,4.0,62,0.02,,,0.48,Weather View 32 v70,2013-04-29 20:43:00,
2013-04-29 16:48:00,66.3,52.0,29.58,SSE,157,1.0,4.0,60,0.03,,,0.49,Weather View 32 v70,2013-04-29 20:48:00,
2013-04-29 16:53:00,66.3,51.0,29.57,SE,135,2.0,4.0,58,0.03,,,0.49,Weather View 32 v70,2013-04-29 20:53:00,
2013-04-29 16:58:00,66.6,50.4,29.57,SE,135,1.0,4.0,56,0.03,,,0.49,Weather View 32 v70,2013-04-29 20:58:00,
2013-04-29 17:03:00,66.4,49.7,29.57,SE,135,2.0,4.0,55,0.03,,,0.49,Weather View 32 v70,2013-04-29 21:03:00,
2013-04-29 17:08:00,66.9,49.2,29.57,SE,135,4.0,5.0,53,0.03,,,0.49,Weather View 32 v70,2013-04-29 21:08:00,
2013-04-29 17:14:00,66.5,52.6,29.56,SE,135,2.0,6.0,61,0.03,,,0.49,Weather View 32 v70,2013-04-29 21:14:00,
2013-04-29 17:19:00,66.9,52.5,29.56,SSE,157,3.0,6.0,60,0.02,,,0.49,Weather View 32 v70,2013-04-29 21:19:00,
2013-04-29 17:24:00,66.9,52.5,29.56,SE,135,2.0,6.0,60,0.02,,,0.49,Weather View 32 v70,2013-04-29 21:24:00,
2013-04-29 17:29:00,67.3,52.4,29.57,SE,135,4.0,6.0,59,0.02,,,0.49,Weather View 32 v70,2013-04-29 21:29:00,
2013-04-29 17:34:00,67.7,51.9,29.57,SSE,157,3.0,6.0,57,0.02,,,0.49,Weather View 32 v70,2013-04-29 21:34:00,
2013-04-29 17:39:00,67.4,51.6,29.57,SE,135,4.0,6.0,57,0.01,,,0.49,Weather View 32 v70,2013-04-29 21:39:00,
2013-04-29 17:44:00,67.5,51.2,29.57,SE,135,4.0,7.0,56,0.01,,,0.49,Weather View 32 v70,2013-04-29 21:44:00,
2013-04-29 17:49:00,67.6,51.3,29.58,SE,135,5.0,7.0,56,0.00,,,0.49,Weather View 32 v70,2013-04-29 21:49:00,
2013-04-29 17:54:00,67.6,51.8,29.58,South,180,4.0,7.0,57,0.00,,,0.49,Weather View 32 v70,2013-04-29 21:54:00,
2013-04-29 17:59:00,67.6,53.2,29.58,SSE,157,3.0,7.0,60,0.00,,,0.49,Weather View 32 v70,2013-04-29 21:59:00,
2013-04-29 18:04:00,67.5,53.5,29.58,SE,135,2.0,7.0,61,0.00,,,0.49,Weather View 32 v70,2013-04-29 22:04:00,
2013-04-29 18:09:00,67.5,53.5,29.58,SE,135,2.0,7.0,61,0.00,,,0.49,Weather View 32 v70,2013-04-29 22:09:00,
2013-04-29 18:14:00,67.7,52.8,29.58,SE,135,2.0,7.0,59,0.00,,,0.49,Weather View 32 v70,2013-04-29 22:14:00,
2013-04-29 18:19:00,67.9,51.6,29.58,SSE,157,3.0,7.0,56,0.00,,,0.49,Weather View 32 v70,2013-04-29 22:19:00,
2013-04-29 18:24:00,68.1,51.3,29.58,South,180,5.0,7.0,55,0.00,,,0.49,Weather View 32 v70,2013-04-29 22:24:00,
2013-04-29 18:29:00,68.1,50.8,29.58,South,180,2.0,8.0,54,0.00,,,0.49,Weather View 32 v70,2013-04-29 22:29:00,
2013-04-29 18:34:00,67.8,51.5,29.58,SSE,157,5.0,8.0,56,0.00,,,0.49,Weather View 32 v70,2013-04-29 22:34:00,
2013-04-29 18:39:00,67.9,51.6,29.58,SE,135,2.0,8.0,56,0.00,,,0.49,Weather View 32 v70,2013-04-29 22:39:00,
2013-04-29 18:44:00,68.0,51.7,29.58,SE,135,3.0,8.0,56,0.00,,,0.49,Weather View 32 v70,2013-04-29 22:44:00,
2013-04-29 18:49:00,68.1,51.3,29.58,SE,135,2.0,8.0,55,0.00,,,0.49,Weather View 32 v70,2013-04-29 22:49:00,
2013-04-29 18:54:00,68.0,53.1,29.58,ESE,112,2.0,8.0,59,0.00,,,0.49,Weather View 32 v70,2013-04-29 22:54:00,
2013-04-29 18:59:00,68.1,54.5,29.58,SE,135,2.0,8.0,62,0.00,,,0.49,Weather View 32 v70,2013-04-29 22:59:00,
2013-04-29 19:04:00,68.1,55.0,29.58,SE,135,1.0,8.0,63,0.00,,,0.49,Weather View 32 v70,2013-04-29 23:04:00,
2013-04-29 19:09:00,67.9,55.7,29.58,ESE,112,2.0,8.0,65,0.00,,,0.49,Weather View 32 v70,2013-04-29 23:09:00,
2013-04-29 19:14:00,67.9,57.3,29.58,ESE,112,1.0,8.0,69,0.00,,,0.49,Weather View 32 v70,2013-04-29 23:14:00,
2013-04-29 19:19:00,67.6,57.0,29.58,ESE,112,2.0,8.0,69,0.00,,,0.49,Weather View 32 v70,2013-04-29 23:19:00,
2013-04-29 19:24:00,67.6,57.0,29.58,ESE,112,2.0,8.0,69,0.00,,,0.49,Weather View 32 v70,2013-04-29 23:24:00,
2013-04-29 19:29:00,67.4,56.4,29.58,ESE,112,1.0,6.0,68,0.00,,,0.49,Weather View 32 v70,2013-04-29 23:29:00,
2013-04-29 19:34:00,67.6,56.2,29.58,ESE,112,0.0,6.0,67,0.00,,,0.49,Weather View 32 v70,2013-04-29 23:34:00,
2013-04-29 19:39:00,67.4,54.3,29.58,ESE,112,0.0,6.0,63,0.00,,,0.49,Weather View 32 v70,2013-04-29 23:39:00,
2013-04-29 19:45:00,67.3,53.8,29.58,ESE,112,0.0,6.0,62,0.00,,,0.49,Weather View 32 v70,2013-04-29 23:45:00,
2013-04-29 19:50:00,66.9,53.4,29.58,SSW,202,0.0,6.0,62,0.00,,,0.49,Weather View 32 v70,2013-04-29 23:50:00,
2013-04-29 19:55:00,66.9,53.9,29.59,SSW,202,0.0,6.0,63,0.00,,,0.49,Weather View 32 v70,2013-04-29 23:55:00,
2013-04-29 20:00:00,66.8,54.2,29.58,SSW,202,0.0,4.0,64,0.00,,,0.49,Weather View 32 v70,2013-04-30 00:00:00,
2013-04-29 20:05:00,66.7,54.9,29.58,SSW,202,0.0,4.0,66,0.00,,,0.49,Weather View 32 v70,2013-04-30 00:05:00,
2013-04-29 20:10:00,66.5,54.8,29.59,SSW,202,0.0,4.0,66,0.00,,,0.49,Weather View 32 v70,2013-04-30 00:10:00,
2013-04-29 20:15:00,66.4,55.1,29.59,SSW,202,0.0,4.0,67,0.00,,,0.49,Weather View 32 v70,2013-04-30 00:15:00,
2013-04-29 20:20:00,66.1,55.6,29.59,SSW,202,0.0,4.0,69,0.00,,,0.49,Weather View 32 v70,2013-04-30 00:20:00,
2013-04-29 20:25:00,66.1,58.3,29.59,SSW,202,0.0,3.0,76,0.00,,,0.49,Weather View 32 v70,2013-04-30 00:25:00,
2013-04-29 20:30:00,65.9,55.4,29.59,SSW,202,0.0,2.0,69,0.00,,,0.49,Weather View 32 v70,2013-04-30 00:30:00,
2013-04-29 20:35:00,65.6,53.5,29.59,SSE,157,1.0,2.0,65,0.00,,,0.49,Weather View 32 v70,2013-04-30 00:35:00,
2013-04-29 20:40:00,65.1,51.7,29.60,SSE,157,0.0,2.0,62,0.00,,,0.49,Weather View 32 v70,2013-04-30 00:40:00,
2013-04-29 20:45:00,64.9,50.6,29.60,SSE,157,1.0,2.0,60,0.00,,,0.49,Weather View 32 v70,2013-04-30 00:45:00,
2013-04-29 20:50:00,64.9,49.7,29.60,SE,135,2.0,2.0,58,0.00,,,0.49,Weather View 32 v70,2013-04-30 00:50:00,
2013-04-29 20:55:00,64.9,48.8,29.60,SE,135,2.0,3.0,56,0.00,,,0.49,Weather View 32 v70,2013-04-30 00:55:00,
2013-04-29 21:00:00,64.9,48.3,29.60,SE,135,1.0,3.0,55,0.00,,,0.49,Weather View 32 v70,2013-04-30 01:00:00,
2013-04-29 21:05:00,64.9,47.8,29.61,SE,135,2.0,3.0,54,0.00,,,0.49,Weather View 32 v70,2013-04-30 01:05:00,
2013-04-29 21:10:00,64.9,47.8,29.61,SE,135,2.0,4.0,54,0.00,,,0.49,Weather View 32 v70,2013-04-30 01:10:00,
2013-04-29 21:15:00,65.1,48.0,29.61,SE,135,1.0,4.0,54,0.00,,,0.49,Weather View 32 v70,2013-04-30 01:15:00,
2013-04-29 21:20:00,65.1,48.0,29.61,SE,135,2.0,4.0,54,0.00,,,0.49,Weather View 32 v70,2013-04-30 01:20:00,
2013-04-29 21:25:00,65.3,48.2,29.60,ESE,112,1.0,4.0,54,0.00,,,0.49,Weather View 32 v70,2013-04-30 01:25:00,
2013-04-29 21:30:00,65.2,48.1,29.60,ESE,112,2.0,5.0,54,0.00,,,0.49,Weather View 32 v70,2013-04-30 01:30:00,
2013-04-29 21:35:00,65.2,47.6,29.60,ESE,112,2.0,6.0,53,0.00,,,0.49,Weather View 32 v70,2013-04-30 01:35:00,
2013-04-29 21:40:00,65.1,47.5,29.60,SE,135,3.0,6.0,53,0.00,,,0.49,Weather View 32 v70,2013-04-30 01:40:00,
2013-04-29 21:45:00,65.1,47.0,29.60,SE,135,2.0,6.0,52,0.00,,,0.49,Weather View 32 v70,2013-04-30 01:45:00,
2013-04-29 21:50:00,64.9,46.8,29.61,SE,135,2.0,6.0,52,0.00,,,0.49,Weather View 32 v70,2013-04-30 01:50:00,
2013-04-29 21:55:00,64.9,46.3,29.60,SE,135,1.0,6.0,51,0.00,,,0.49,Weather View 32 v70,2013-04-30 01:55:00,
2013-04-29 22:00:00,64.9,46.3,29.61,SE,135,1.0,6.0,51,0.00,,,0.49,Weather View 32 v70,2013-04-30 02:00:00,
2013-04-29 22:05:00,64.9,46.3,29.61,SE,135,1.0,6.0,51,0.00,,,0.49,Weather View 32 v70,2013-04-30 02:05:00,
2013-04-29 22:10:00,64.8,46.2,29.61,South,180,1.0,6.0,51,0.00,,,0.49,Weather View 32 v70,2013-04-30 02:10:00,
2013-04-29 22:15:00,64.8,46.2,29.61,SSW,202,1.0,6.0,51,0.00,,,0.49,Weather View 32 v70,2013-04-30 02:15:00,
2013-04-29 22:20:00,64.9,45.8,29.61,SSW,202,0.0,6.0,50,0.00,,,0.49,Weather View 32 v70,2013-04-30 02:20:00,
2013-04-29 22:26:00,64.9,45.8,29.61,SW,225,2.0,6.0,50,0.00,,,0.49,Weather View 32 v70,2013-04-30 02:26:00,
2013-04-29 22:31:00,64.9,45.8,29.62,WSW,247,1.0,6.0,50,0.00,,,0.49,Weather View 32 v70,2013-04-30 02:31:00,
2013-04-29 22:36:00,64.8,45.7,29.61,WSW,247,0.0,5.0,50,0.00,,,0.49,Weather View 32 v70,2013-04-30 02:36:00,
2013-04-29 22:41:00,64.9,45.8,29.61,WSW,247,2.0,5.0,50,0.00,,,0.49,Weather View 32 v70,2013-04-30 02:41:00,
2013-04-29 22:46:00,64.9,45.8,29.61,WSW,247,1.0,5.0,50,0.00,,,0.49,Weather View 32 v70,2013-04-30 02:46:00,
2013-04-29 22:51:00,64.9,45.8,29.61,WSW,247,0.0,5.0,50,0.00,,,0.49,Weather View 32 v70,2013-04-30 02:51:00,
2013-04-29 22:56:00,64.9,45.8,29.61,WSW,247,0.0,4.0,50,0.00,,,0.49,Weather View 32 v70,2013-04-30 02:56:00,
2013-04-29 23:01:00,64.9,45.2,29.61,WSW,247,0.0,2.0,49,0.00,,,0.49,Weather View 32 v70,2013-04-30 03:01:00,
2013-04-29 23:06:00,64.9,45.2,29.61,WSW,247,0.0,2.0,49,0.00,,,0.49,Weather View 32 v70,2013-04-30 03:06:00,
2013-04-29 23:11:00,64.9,45.2,29.60,WSW,247,0.0,2.0,49,0.00,,,0.49,Weather View 32 v70,2013-04-30 03:11:00,
2013-04-29 23:16:00,64.9,45.2,29.60,WSW,247,0.0,2.0,49,0.00,,,0.49,Weather View 32 v70,2013-04-30 03:16:00,
2013-04-29 23:21:00,64.6,45.0,29.60,SSE,157,2.0,2.0,49,0.00,,,0.49,Weather View 32 v70,2013-04-30 03:21:00,
2013-04-29 23:26:00,64.6,45.0,29.60,SE,135,1.0,2.0,49,0.00,,,0.49,Weather View 32 v70,2013-04-30 03:26:00,
2013-04-29 23:31:00,64.5,44.9,29.60,SE,135,0.0,2.0,49,0.00,,,0.49,Weather View 32 v70,2013-04-30 03:31:00,
2013-04-29 23:36:00,64.5,44.9,29.60,SE,135,0.0,2.0,49,0.00,,,0.49,Weather View 32 v70,2013-04-30 03:36:00,
2013-04-29 23:41:00,64.5,44.9,29.60,SE,135,0.0,2.0,49,0.00,,,0.49,Weather View 32 v70,2013-04-30 03:41:00,
2013-04-29 23:46:00,64.5,44.3,29.60,SE,135,0.0,2.0,48,0.00,,,0.49,Weather View 32 v70,2013-04-30 03:46:00,
2013-04-29 23:51:00,64.5,44.3,29.60,SE,135,1.0,2.0,48,0.00,,,0.49,Weather View 32 v70,2013-04-30 03:51:00,
2013-04-29 23:56:00,64.5,44.3,29.59,SE,135,1.0,2.0,48,0.00,,,0.49,Weather View 32 v70,2013-04-30 03:56:00,